Le nostre stazioni meteo in Italia

Pubblicità
Il mio iltempo24.it
Trieste, Italia (16110): Temperatura & dewpoint: 09.09.2019 21:00:00 - 15.09.2019 21:00:00 (CEST)Trieste, Italia (16110): velocità del vento: 09.09.2019 21:00:00 - 15.09.2019 21:00:00 (CEST)Trieste, Italia (16110): direzione del vento: 09.09.2019 21:00:00 - 15.09.2019 21:00:00 (CEST)Trieste, Italia (16110): reduced air pressure: 09.09.2019 21:00:00 - 15.09.2019 21:00:00 (CEST)Trieste, Italia (16110): visibility: 09.09.2019 21:00:00 - 15.09.2019 21:00:00 (CEST)Trieste, Italia (16110): ore di luce: 09.09.2019 21:00:00 - 15.09.2019 21:00:00 (CEST)
Data & Tempo tt [°C] td [°C] ff [km/h] ff [kn] dd ppp [hPa] vv [km] sd [min]
15.09.2019 21:00:00 - - - - - - - -
15.09.2019 20:00:00 22,4 18,2 8 4 NE 1021,8 20 -
15.09.2019 19:00:00 24,0 19,9 4 2 ONO 1021,9 20 60
15.09.2019 18:00:00 24,6 20,1 4 2 ONO 1022,2 20 60
15.09.2019 17:00:00 25,4 20,2 8 4 O 1022,6 20 60
15.09.2019 16:00:00 26,4 20,7 8 4 OSO 1022,6 20 60
15.09.2019 15:00:00 25,6 19,2 8 4 OSO 1023,4 20 60
15.09.2019 14:00:00 25,6 19,7 5 3 O 1023,9 20 60
15.09.2019 13:00:00 25,2 19,4 4 2 ONO 1024,8 20 60
15.09.2019 12:00:00 25,4 19,5 5 3 OSO 1024,8 20 60
15.09.2019 11:00:00 26,6 17,1 5 3 OSO 1024,9 20 60
15.09.2019 10:00:00 24,2 16,5 13 7 NE 1025,3 20 60
15.09.2019 09:00:00 22,4 16,0 13 7 E 1025,2 20 60
15.09.2019 08:00:00 20,8 15,6 9 5 NE 1024,8 20 -
15.09.2019 07:00:00 21,0 15,5 22 12 NNE 1024,4 20 -
15.09.2019 06:00:00 21,0 15,8 22 12 NNE 1025,2 20 -
15.09.2019 05:00:00 21,2 16,0 24 13 NE 1025,2 20 -
15.09.2019 04:00:00 21,2 15,7 22 12 NE 1025,2 20 -
15.09.2019 03:00:00 21,4 16,2 22 12 NE 1025,5 20 -
15.09.2019 02:00:00 21,8 16,1 22 12 NE 1025,8 20 -
15.09.2019 01:00:00 22,0 16,1 15 8 NE 1026,1 20 -
15.09.2019 00:00:00 22,6 16,4 2 1 NO 1026,1 20 -
14.09.2019 23:00:00 22,6 16,6 9 5 SE 1026,2 20 -
14.09.2019 22:00:00 23,0 16,5 11 6 E 1026,2 20 -
14.09.2019 21:00:00 24,0 16,3 18 10 NE 1026,0 20 -
14.09.2019 20:00:00 25,4 16,0 15 8 NE 1026,0 20 -
14.09.2019 19:00:00 27,0 15,7 18 10 NNE 1025,8 20 48
14.09.2019 18:00:00 28,0 15,3 18 10 NE 1025,5 20 60
14.09.2019 17:00:00 29,0 15,9 11 6 NE 1025,7 20 60
14.09.2019 16:00:00 29,0 15,9 16 9 NNE 1025,9 20 60
14.09.2019 15:00:00 28,6 15,5 15 8 NE 1026,8 20 60
14.09.2019 14:00:00 29,0 16,2 9 5 NE 1027,1 20 60
14.09.2019 13:00:00 28,0 16,6 13 7 NNE 1027,8 20 60
14.09.2019 12:00:00 27,0 16,6 16 9 NE 1028,0 20 60
14.09.2019 11:00:00 26,2 19,1 9 5 E 1028,2 20 60
14.09.2019 10:00:00 23,4 17,4 4 2 O 1028,3 20 60
14.09.2019 09:00:00 22,0 15,1 4 2 SSO 1028,2 20 60
14.09.2019 08:00:00 21,0 15,3 4 2 ESE 1028,0 20 -
14.09.2019 07:00:00 20,4 14,7 5 3 E 1027,7 20 -
14.09.2019 06:00:00 20,2 14,8 5 3 SE 1027,7 20 -
14.09.2019 05:00:00 20,4 14,7 5 3 E 1027,7 20 -
14.09.2019 04:00:00 22,2 14,6 22 12 NE 1027,4 20 -
14.09.2019 03:00:00 22,0 15,1 13 7 ENE 1027,8 20 -
14.09.2019 02:00:00 22,4 15,0 21 11 ENE 1027,8 20 -
14.09.2019 01:00:00 22,0 14,9 16 9 ENE 1028,0 20 -
14.09.2019 00:00:00 22,8 15,6 4 2 N 1028,0 20 -
13.09.2019 23:00:00 21,8 15,6 9 5 E 1028,0 20 -
13.09.2019 22:00:00 22,2 15,5 8 4 NNE 1027,9 20 -
13.09.2019 21:00:00 23,0 15,3 8 4 NNE 1027,8 20 -
13.09.2019 20:00:00 23,0 17,5 8 4 NE 1027,0 20 -
13.09.2019 19:00:00 24,8 19,0 4 2 OSO 1026,9 20 60
13.09.2019 18:00:00 26,4 19,8 5 3 O 1027,0 20 60
13.09.2019 17:00:00 26,8 19,9 2 1 ONO 1027,4 20 60
13.09.2019 16:00:00 26,2 20,3 4 2 ONO 1027,4 20 60
13.09.2019 15:00:00 26,4 17,2 4 2 O 1028,1 20 60
13.09.2019 14:00:00 25,2 18,6 11 6 ONO 1028,8 20 60
13.09.2019 13:00:00 24,6 19,9 8 4 ONO 1029,1 20 60
13.09.2019 12:00:00 25,4 20,0 9 5 O 1029,3 20 60
13.09.2019 11:00:00 24,8 18,3 8 4 ONO 1029,3 20 60
13.09.2019 10:00:00 24,6 15,8 5 3 ENE 1029,2 20 60
13.09.2019 09:00:00 21,4 14,3 15 8 ENE 1029,2 20 60
13.09.2019 08:00:00 20,6 14,5 11 6 SE 1029,3 20 0
13.09.2019 07:00:00 20,4 14,5 13 7 ENE 1029,0 20 -
13.09.2019 06:00:00 21,0 14,4 21 11 NNE 1028,7 20 -
13.09.2019 05:00:00 20,6 14,0 15 8 S 1028,7 20 -
13.09.2019 04:00:00 21,2 14,1 15 8 NE 1028,8 20 -
13.09.2019 03:00:00 20,8 13,3 15 8 NE 1028,8 20 -
13.09.2019 02:00:00 20,8 13,3 11 6 NE 1028,6 20 -
13.09.2019 01:00:00 21,4 13,3 11 6 ENE 1028,6 20 -
13.09.2019 00:00:00 21,8 13,2 11 6 N 1028,4 20 -
12.09.2019 23:00:00 22,6 12,8 18 10 NNE 1028,2 20 -
12.09.2019 22:00:00 22,8 13,0 5 3 NE 1028,1 20 -
12.09.2019 21:00:00 23,4 13,0 16 9 NE 1027,6 20 -
12.09.2019 20:00:00 23,8 13,1 13 7 ENE 1027,4 20 0
12.09.2019 19:00:00 25,6 12,8 11 6 E 1026,9 20 60
12.09.2019 18:00:00 27,0 12,3 13 7 E 1026,9 20 60
12.09.2019 17:00:00 27,4 12,2 15 8 ENE 1026,9 20 60
12.09.2019 16:00:00 28,0 12,8 11 6 E 1027,0 20 60
12.09.2019 15:00:00 28,0 12,4 16 9 E 1027,1 20 60
12.09.2019 14:00:00 27,2 12,1 15 8 NE 1028,1 20 60
12.09.2019 13:00:00 26,6 12,3 21 11 ENE 1027,0 20 60
12.09.2019 12:00:00 26,2 12,3 21 11 ENE 1027,1 20 60
12.09.2019 11:00:00 25,0 12,6 22 12 ENE 1027,0 20 60
12.09.2019 10:00:00 24,8 13,7 4 2 OSO 1026,3 20 60
12.09.2019 09:00:00 23,0 13,8 9 5 NO 1025,6 20 60
12.09.2019 08:00:00 21,2 13,9 24 13 ENE 1024,9 20 0
12.09.2019 07:00:00 19,2 14,5 8 4 ESE 1024,5 20 -
12.09.2019 06:00:00 19,6 15,0 4 2 N 1023,9 20 -
12.09.2019 05:00:00 17,8 14,7 2 1 SO 1023,7 20 -
12.09.2019 04:00:00 19,0 14,9 8 4 ESE 1023,6 20 -
12.09.2019 03:00:00 - - - - - - - -
12.09.2019 02:00:00 20,8 14,7 22 12 ENE 1023,8 20 -
12.09.2019 01:00:00 20,6 13,8 24 13 NE 1023,0 20 -
12.09.2019 00:00:00 20,4 13,4 22 12 NE 1022,7 20 -
11.09.2019 23:00:00 20,6 13,8 21 11 E 1022,6 20 -
11.09.2019 22:00:00 20,4 13,4 16 9 E 1021,9 20 -
11.09.2019 21:00:00 20,8 14,0 18 10 NE 1021,3 20 -
11.09.2019 20:00:00 21,4 14,1 22 12 SSO 1020,4 20 -
11.09.2019 19:00:00 22,4 14,3 22 12 NNE 1020,2 20 6
11.09.2019 18:00:00 23,8 14,5 21 11 NE 1019,8 20 36
11.09.2019 17:00:00 24,4 14,2 21 11 NNE 1019,4 20 60
11.09.2019 16:00:00 25,0 14,5 22 12 NE 1019,4 20 60
11.09.2019 15:00:00 25,4 15,1 16 9 NNE 1019,4 20 60
11.09.2019 14:00:00 25,0 15,1 21 11 NE 1019,9 20 60
11.09.2019 13:00:00 24,6 14,7 5 3 NE 1019,9 20 60
11.09.2019 12:00:00 23,6 14,6 21 11 NE 1019,7 20 60
11.09.2019 11:00:00 22,4 14,0 26 14 NE 1019,1 20 60
11.09.2019 10:00:00 21,6 13,5 22 12 NE 1019,0 20 60
11.09.2019 09:00:00 20,4 13,1 21 11 NNE 1018,5 20 60
11.09.2019 08:00:00 18,6 12,6 24 13 NE 1018,4 20 6
11.09.2019 07:00:00 18,6 11,9 26 14 NE 1018,1 20 -
11.09.2019 06:00:00 18,8 11,9 26 14 NNE 1017,7 20 -
11.09.2019 05:00:00 19,0 11,8 26 14 NNE 1017,4 20 -
11.09.2019 04:00:00 19,0 11,1 24 13 NNE 1017,3 20 -
11.09.2019 03:00:00 19,2 11,2 24 13 NNE 1017,5 20 -
11.09.2019 02:00:00 19,4 11,4 22 12 NNE 1017,6 20 -
11.09.2019 01:00:00 19,6 11,1 26 14 NNE 1017,3 20 -
11.09.2019 00:00:00 19,4 11,4 22 12 NNE 1017,5 20 -
10.09.2019 23:00:00 20,0 11,7 18 10 NE 1017,5 20 -
10.09.2019 22:00:00 20,4 11,9 16 9 NNE 1017,3 20 -
10.09.2019 21:00:00 21,0 12,7 2 1 NNE 1017,2 20 -
10.09.2019 20:00:00 22,0 13,4 9 5 NNE 1016,8 20 24
10.09.2019 19:00:00 23,6 13,5 4 2 E 1016,6 20 60
10.09.2019 18:00:00 24,0 14,4 5 3 O 1016,5 20 60
10.09.2019 17:00:00 24,0 14,1 5 3 ONO 1016,3 20 60
10.09.2019 16:00:00 24,0 13,0 8 4 ONO 1016,5 20 60
10.09.2019 15:00:00 24,0 14,4 5 3 ONO 1016,7 20 60
10.09.2019 14:00:00 23,0 14,0 5 3 ONO 1016,7 20 60
10.09.2019 13:00:00 22,8 13,3 4 2 ONO 1016,8 20 60
10.09.2019 12:00:00 25,0 8,9 4 2 ESE 1016,9 20 60
10.09.2019 11:00:00 22,8 9,2 9 5 NE 1016,8 20 60
10.09.2019 10:00:00 20,2 11,2 18 10 NE 1016,6 20 60
10.09.2019 09:00:00 18,4 10,2 16 9 NE 1016,7 20 30
10.09.2019 08:00:00 16,4 10,3 18 10 NE 1016,2 20 -
10.09.2019 07:00:00 16,2 12,4 8 4 NE 1016,4 20 -
10.09.2019 06:00:00 15,0 14,0 2 1 NE 1016,4 20 -
10.09.2019 05:00:00 14,8 13,5 2 1 NNE 1016,3 20 -
10.09.2019 04:00:00 14,8 13,4 5 3 NE 1016,4 20 -
10.09.2019 03:00:00 14,8 13,2 8 4 NE 1016,4 20 -
10.09.2019 02:00:00 15,0 13,4 8 4 NE 1016,4 20 -
10.09.2019 01:00:00 16,2 12,5 11 6 NE 1016,3 20 -
10.09.2019 00:00:00 16,8 13,9 5 3 ENE 1015,9 20 -
09.09.2019 23:00:00 17,2 13,1 9 5 ENE 1015,8 20 -
09.09.2019 22:00:00 17,0 13,3 11 6 NE 1015,6 20 -
09.09.2019 21:00:00 16,4 14,6 5 3 NE 1015,3 20 -

tt = Temperatura
td = dewpoint
ff = velocità del vento
dd = direzione del vento
ppp = reduced air pressure
vv = visibility
sd = ore di luce

Stazioni seguenti

WeatherPro
AMSI
MeteoEarth